CZ-6A DEB, 61482

Orbit data source: Space-Track

CZ-6A DEB, 61482 is space debris in LEO originally from a launch on Tue, 06 Aug 2024 UTC launched from the Taiyaun Space Center, China (TSC). Debris objects in space refer to the collection of defunct objects orbiting the Earth. Examples of debris include non-operational satellites, rocket bodies, and fragments generated from explosions, collisions, or faulty payload assembly.

Loading next visibility...
Identifier
61482, 2024-140AAQ
Orbit
LEO
Country
Flag of CNCN / PRC
Related business
Manufacturer
SAST
Mission
Spacecraft
Bus & Motor
Unknown
Mass
Unknown
Launch date (UTC)
2024-08-06 (2 years ago)
Launch vehicle
Unknown
Launch site
Taiyaun Space Center, China (TSC)
Object type
Payload
Rocket body
Debris
Shape & HBR
Unknown shape, 0.1 m
Radar Cross Section
Medium (>0.1 m² and <1 m²)

Expand to show TLE details & history
Last TLE update: 13 hours ago

TLE from 13 hours ago
0 CZ-6A DEB
1 61482U 24140AAQ 26171.29399303  .00001924  00000-0  36938-3 0  9995
2 61482  89.0626 274.7682 0106508 239.6064 119.4588 14.59733232 95188
Epoch: 2026-06-20T07:03Z
TLE epoch observation values (Epoch: 2026-06-20T07:03:20.997Z)
Latitude
-0.00004°
Longitude
-99.57997°
Altitude
734.801 km
Speed
7.468 km/s
True Right ascension
18h 19m 04s
True Declination
0° 00' 00"
Sunlit
Object was in full shadow at epoch
Visualization orbit readout
Latitude
Unknown
Longitude
Unknown
Altitude
Unknown
Speed
Unknown
Apparent Right ascension
Unknown
Apparent Declination
Unknown
Sunlit
N/A
Visualization observer readout
Local Sidereal Time
07:21:10
Azimuth
Unknown
Elevation
Unknown
Doppler factor
Unknown
Orbital elements
Apogee altitude
766.22 km
Perigee altitude
615.638 km
Semi-major axis
7,069.066 km
Eccentricity
0.01065
Inclination
89.0626°
RAAN
274.7682°
Arg. of periapsis
239.6064°
True anomaly
120.51452°
Mean anomaly
119.4588°
Eccentric anomaly
119.98736°
Mean motion
3.65174 °/min
Orbital period
98.58 mins
BSTAR
0.00036938
Loading maneuver chart data...
Computing Atmospheric mass density...
Loading historical data...
Loading historical data...
Loading historical data...
Loading historical data...
Loading historical data...
Loading historical data...
Loading historical data...

Documentation

Showing up to 5 results
|